SAOCOM 1B

Last updated on Wed Jul 02 2025 00:02:15 GMT+0000 (Coordinated Universal Time)

1 46265U 20059A 25182.58501572 .00000286 00000+0 42525-4 0 9997 2 46265 97.8890 8.4598 0001542 93.0395 267.0995 14.82156791261552
UTC large
Height (km)
Speed (km/s)
/
Latitude / Longitude
Inclination (degrees)
Orbital Period (minutes)
Azimuth
Elevation
Range (km)
Doppler Factor

Next 0 passes for location: London (51.5072 / 0.1276)

Sorry there are no passes over London.